Regional Weather Roundup
Issued by NWS

Home | Current Version | Previous Version | Text Only | Print | Product List | Glossary Off
Versions: 1 2 3 4 5 6 7 8 9 10 11 12 13 14 15 16 17 18 19 20 21 22 23 24 25 26 27 28 29 30 31 32 33 34 35 36 37 38 39 40 41 42 43 44 45 46 47 48 49 50

000
ASUS43 KIND 061459
RWRIN

WEATHER ROUNDUP FOR INDIANA
NATIONAL WEATHER SERVICE INDIANAPOLIS IN
1100 AM EDT WED MAY 06 2015

NOTE: "FAIR" INDICATES FEW OR NO CLOUDS BELOW 12,000 FEET WITH NO
SIGNIFICANT WEATHER AND/OR OBSTRUCTIONS TO VISIBILITY.

* - STATION DOES NOT REPORT WEATHER SUCH AS PRECIPITATION OR FOG.

+ - STATION NOT QUALITY CONTROLLED BY THE NATIONAL WEATHER SERVICE.
    USE DATA WITH CAUTION...ESPECIALLY DEWPOINT AND RELATIVE
    HUMIDITY OBSERVATIONS.

INZ001>003-010>013-019-020-061600-
NORTHWEST INDIANA

CITY           SKY/WX    TMP DP  RH WIND       PRES   REMARKS
GARY /AIRPORT/ PTSUNNY   64 N/A N/A S8        30.18F FOG
VALPARAISO     PTSUNNY   62  57  83 E6        30.20S HAZE

$$

LMZ046-743>745-061600-
SOUTHERN LAKE MICHIGAN

STATION/POSITION TIME  TEMP    WIND        PRES    WAVE
                       AIR SEA DIR/SP/G            HT
                 (UTC) (F)     (DEG/KT/KT) (MB)    (FT)
BURNS HARBOR     1400   64     170/  5/  7 1022.4F
MICHIGAN CITY    1400   61     130/  8/ 11   N/A
5NW MICH CITY    1400   58 52  170/  6/  8   N/A     1

$$

INZ004-005-014>016-021>024-061600-
NORTH CENTRAL INDIANA

CITY           SKY/WX    TMP DP  RH WIND       PRES   REMARKS
ELKHART        CLOUDY    59  55  88 SE6       30.22F FOG
GOSHEN         CLOUDY    61  56  83 SE6       30.22S HAZE
SOUTH BEND     MOSUNNY   63  56  78 SE7       30.21F HAZE

$$

INZ006>009-017-018-025>027-061600-
NORTHEAST INDIANA

CITY           SKY/WX    TMP DP  RH WIND       PRES   REMARKS
ANGOLA *+      CLOUDY    57  46  67 SE6       30.23S
FORT WAYNE     CLOUDY    59  55  87 SE5       30.24S FOG

$$

INZ028-029-035-036-043>045-051>053-061600-
WEST CENTRAL INDIANA

CITY           SKY/WX    TMP DP  RH WIND       PRES   REMARKS
GREENCASTLE +  SUNNY     77  50  38 SW3       30.21F
LAFAYETTE      PTSUNNY   74  61  63 S3        30.19S
TERRE HAUTE    SUNNY     78  55  44 W6        30.20S

$$

INZ030>032-037>040-046>048-054>057-064-065-061600-
CENTRAL INDIANA

CITY           SKY/WX    TMP DP  RH WIND       PRES   REMARKS
COLUMBUS       SUNNY     75  55  50 CALM      30.22S
GREENWOOD *+   SUNNY     79  50  36 W5        30.22S
INDIANAPOLIS   MOSUNNY   78  56  46 CALM      30.20S
-EAGLE CREEK   SUNNY     77  56  48 SW5       30.20S
KOKOMO *+      MOSUNNY   66  61  82 E5        30.21S
MT COMFORT *+  SUNNY     79  41  25 W6        30.22S
SHELBYVILLE    SUNNY     81  55  40 W8        30.21S

$$

INZ033-034-041-042-049-050-058-059-061600-
EAST CENTRAL INDIANA

CITY           SKY/WX    TMP DP  RH WIND       PRES   REMARKS
MUNCIE         MOSUNNY   76  59  55 W5        30.22S

$$

INZ060-061-067>069-081>083-085>088-061600-
SOUTHWEST INDIANA

CITY           SKY/WX    TMP DP  RH WIND       PRES   REMARKS
EVANSVILLE     PTSUNNY   77  55  46 SW3       30.21S
HUNTINGBURG *+ SUNNY     77  59  53 CALM      30.21S

$$

INZ062-063-066-070>080-084-089>092-061600-
SOUTH CENTRAL AND SOUTHEAST INDIANA

CITY           SKY/WX    TMP DP  RH WIND       PRES   REMARKS
BLOOMINGTON    SUNNY     78  52  40 SW7       30.21S
MADISON *+     SUNNY     79  50  36 CALM      30.24S
SEYMOUR +      SUNNY     79  59  50 W3        30.21F

$$




USA.gov is the U.S. government's official web portal to all federal, state and local government web resources and services.